TimeCDT,TemperatureF,Dew PointF,Humidity,Sea Level PressureIn,VisibilityMPH,Wind Direction,Wind SpeedMPH,Gust SpeedMPH,PrecipitationIn,Events,Conditions,WindDirDegrees,DateUTC
12:35 AM,82.4,73.4,74,29.98,9.0,SE,26.5,-,N/A,,Partly Cloudy,140,2012-10-14 05:35:00
12:55 AM,82.4,73.4,74,29.97,8.0,SE,24.2,-,N/A,,Scattered Clouds,140,2012-10-14 05:55:00
1:15 AM,82.4,73.4,74,29.97,10.0,SE,25.3,-,N/A,,Scattered Clouds,140,2012-10-14 06:15:00
1:35 AM,82.4,73.4,74,29.97,9.0,SE,26.5,-,N/A,,Mostly Cloudy,140,2012-10-14 06:35:00
1:55 AM,82.4,73.4,74,29.97,9.0,SSE,25.3,-,N/A,,Scattered Clouds,150,2012-10-14 06:55:00
2:15 AM,82.4,73.4,74,29.96,9.0,SE,26.5,-,N/A,,Clear,140,2012-10-14 07:15:00
2:35 AM,82.4,71.6,70,29.95,10.0,SSE,27.6,-,N/A,,Clear,150,2012-10-14 07:35:00
2:55 AM,82.4,73.4,74,29.95,9.0,SSE,26.5,-,N/A,,Clear,150,2012-10-14 07:55:00
3:15 AM,82.4,71.6,70,29.93,9.0,SSE,28.8,-,N/A,,Clear,160,2012-10-14 08:15:00
3:35 AM,82.4,73.4,74,29.93,8.0,SSE,29.9,-,N/A,,Scattered Clouds,150,2012-10-14 08:35:00
3:55 AM,82.4,71.6,70,29.93,10.0,SSE,26.5,32.2,N/A,,Clear,160,2012-10-14 08:55:00
4:15 AM,82.4,71.6,70,29.93,9.0,SSE,26.5,-,N/A,,Partly Cloudy,160,2012-10-14 09:15:00
4:35 AM,82.4,73.4,74,29.93,9.0,SSE,23.0,-,N/A,,Scattered Clouds,150,2012-10-14 09:35:00
4:55 AM,82.4,71.6,70,29.94,9.0,SSE,26.5,-,N/A,,Scattered Clouds,150,2012-10-14 09:55:00
5:15 AM,82.4,71.6,70,29.93,9.0,SSE,26.5,32.2,N/A,,Scattered Clouds,150,2012-10-14 10:15:00
5:35 AM,82.4,71.6,70,29.94,9.0,SSE,24.2,-,N/A,,Partly Cloudy,150,2012-10-14 10:35:00
6:15 AM,82.4,71.6,70,29.95,10.0,SSE,23.0,-,N/A,,Partly Cloudy,150,2012-10-14 11:15:00
6:35 AM,82.4,71.6,70,29.95,10.0,SSE,24.2,-,N/A,,Scattered Clouds,150,2012-10-14 11:35:00
6:55 AM,82.4,69.8,66,29.95,10.0,SSE,25.3,-,N/A,,Scattered Clouds,150,2012-10-14 11:55:00
7:15 AM,82.4,69.8,66,29.95,-9999.0,SSE,25.3,-,N/A,,Unknown,160,2012-10-14 12:15:00
7:35 AM,82.4,69.8,66,29.97,9.0,SSE,24.2,-,N/A,,Unknown,160,2012-10-14 12:35:00
7:55 AM,82.4,69.8,66,29.98,9.0,SSE,20.7,-,N/A,,Scattered Clouds,150,2012-10-14 12:55:00
8:15 AM,82.4,69.8,66,29.98,9.0,SSE,20.7,-,N/A,,Scattered Clouds,150,2012-10-14 13:15:00
8:35 AM,82.4,69.8,66,29.99,9.0,SSE,21.9,-,N/A,,Partly Cloudy,150,2012-10-14 13:35:00
8:55 AM,82.4,69.8,66,30.00,9.0,SSE,19.6,-,N/A,,Partly Cloudy,150,2012-10-14 13:55:00
9:15 AM,82.4,69.8,66,30.01,10.0,SSE,18.4,-,N/A,,Clear,150,2012-10-14 14:15:00
9:35 AM,-9999,-9999,N/A,30.02,-9999.0,North,-9999.0,-,N/A,,Unknown,0,2012-10-14 14:35:00
9:55 AM,82.4,69.8,66,30.03,9.0,SSE,18.4,-,N/A,,Unknown,160,2012-10-14 14:55:00
10:15 AM,82.4,69.8,66,30.03,10.0,SSE,18.4,-,N/A,,Clear,150,2012-10-14 15:15:00
10:35 AM,82.4,68.0,62,30.03,10.0,SSE,20.7,-,N/A,,Clear,160,2012-10-14 15:35:00
10:55 AM,82.4,69.8,66,30.03,10.0,SSE,17.3,-,N/A,,Clear,150,2012-10-14 15:55:00
11:15 AM,82.4,69.8,66,30.03,10.0,SSE,15.0,-,N/A,,Clear,150,2012-10-14 16:15:00
11:35 AM,82.4,69.8,66,30.03,9.0,SSE,16.1,-,N/A,,Clear,150,2012-10-14 16:35:00
11:55 AM,82.4,69.8,66,30.03,10.0,SSE,13.8,-,N/A,,Clear,150,2012-10-14 16:55:00
12:15 PM,82.4,69.8,66,30.04,10.0,SE,12.7,-,N/A,,Clear,140,2012-10-14 17:15:00
12:35 PM,82.4,69.8,66,30.04,10.0,SE,13.8,-,N/A,,Clear,140,2012-10-14 17:35:00
12:55 PM,82.4,69.8,66,30.03,10.0,SE,13.8,-,N/A,,Clear,130,2012-10-14 17:55:00
1:15 PM,82.4,71.6,70,30.02,10.0,SE,13.8,-,N/A,,Clear,140,2012-10-14 18:15:00
1:35 PM,82.4,69.8,66,30.01,10.0,SE,13.8,-,N/A,,Clear,140,2012-10-14 18:35:00
1:55 PM,82.4,69.8,66,30.02,10.0,SE,12.7,-,N/A,,Clear,140,2012-10-14 18:55:00
2:15 PM,82.4,69.8,66,30.01,10.0,SE,12.7,-,N/A,,Clear,140,2012-10-14 19:15:00
2:35 PM,82.4,69.8,66,30.00,10.0,SE,13.8,-,N/A,,Clear,130,2012-10-14 19:35:00
2:55 PM,82.4,69.8,66,30.00,10.0,SE,13.8,-,N/A,,Clear,140,2012-10-14 19:55:00
3:15 PM,82.4,69.8,66,29.99,10.0,SE,15.0,-,N/A,,Clear,140,2012-10-14 20:15:00
3:35 PM,82.4,69.8,66,29.99,10.0,SE,13.8,-,N/A,,Clear,140,2012-10-14 20:35:00
3:55 PM,82.4,69.8,66,29.98,10.0,SE,13.8,-,N/A,,Clear,130,2012-10-14 20:55:00
4:15 PM,82.4,69.8,66,29.97,10.0,SE,15.0,-,N/A,,Clear,140,2012-10-14 21:15:00
4:35 PM,82.4,69.8,66,29.97,10.0,SE,12.7,-,N/A,,Clear,140,2012-10-14 21:35:00
4:55 PM,82.4,69.8,66,29.97,10.0,SE,15.0,-,N/A,,Clear,130,2012-10-14 21:55:00
5:15 PM,82.4,69.8,66,29.97,10.0,SE,13.8,-,N/A,,Clear,130,2012-10-14 22:15:00
5:35 PM,82.4,71.6,70,29.97,10.0,SE,10.4,-,N/A,,Clear,130,2012-10-14 22:35:00
5:55 PM,82.4,69.8,66,29.98,10.0,SE,10.4,-,N/A,,Clear,130,2012-10-14 22:55:00
6:15 PM,82.4,69.8,66,29.98,10.0,SE,10.4,-,N/A,,Clear,130,2012-10-14 23:15:00
6:35 PM,82.4,69.8,66,29.99,10.0,ESE,9.2,-,N/A,,Clear,120,2012-10-14 23:35:00
6:55 PM,82.4,69.8,66,29.99,10.0,ESE,6.9,-,N/A,,Clear,110,2012-10-14 23:55:00
7:15 PM,82.4,69.8,66,29.99,10.0,ESE,10.4,-,N/A,,Clear,120,2012-10-15 00:15:00
7:35 PM,82.4,69.8,66,29.99,10.0,SE,10.4,-,N/A,,Clear,130,2012-10-15 00:35:00
7:55 PM,82.4,69.8,66,29.99,10.0,ESE,11.5,-,N/A,,Clear,120,2012-10-15 00:55:00
8:15 PM,82.4,71.6,70,30.00,10.0,ESE,11.5,-,N/A,,Clear,120,2012-10-15 01:15:00
8:35 PM,82.4,71.6,70,30.00,10.0,ESE,10.4,-,N/A,,Clear,120,2012-10-15 01:35:00
8:55 PM,82.4,69.8,66,30.01,10.0,ESE,10.4,-,N/A,,Clear,120,2012-10-15 01:55:00
9:15 PM,82.4,69.8,66,30.01,10.0,ESE,11.5,-,N/A,,Clear,120,2012-10-15 02:15:00
9:35 PM,82.4,69.8,66,30.01,10.0,SE,10.4,-,N/A,,Clear,130,2012-10-15 02:35:00
9:55 PM,82.4,69.8,66,30.02,10.0,ESE,11.5,-,N/A,,Clear,120,2012-10-15 02:55:00
10:15 PM,82.4,69.8,66,30.02,10.0,SE,9.2,-,N/A,,Clear,130,2012-10-15 03:15:00
10:35 PM,82.4,69.8,66,30.03,10.0,SE,8.1,-,N/A,,Clear,130,2012-10-15 03:35:00
10:55 PM,82.4,69.8,66,30.03,10.0,SE,6.9,-,N/A,,Clear,130,2012-10-15 03:55:00
11:15 PM,82.4,69.8,66,30.03,10.0,SE,8.1,-,N/A,,Clear,140,2012-10-15 04:15:00
11:35 PM,82.4,69.8,66,30.03,10.0,SE,6.9,-,N/A,,Clear,140,2012-10-15 04:35:00